Regional Weather Roundup
Issued by NWS

Home | Current Version | Previous Version | Graphics & Text | Print | Product List | Glossary Off
Versions: 1 2 3 4 5 6 7 8 9 10 11 12 13 14 15 16 17 18 19 20 21 22 23 24 25 26 27 28 29 30 31 32 33 34 35 36 37 38 39 40 41 42 43 44 45 46 47 48 49 50

000
ASUS43 KMKX 182300
RWRWI

WISCONSIN REGIONAL WEATHER ROUNDUP
NATIONAL WEATHER SERVICE MILWAUKEE/SULLIVAN WI
600 PM CDT SAT APR 18 2015

NOTE: "FAIR" INDICATES FEW OR NO CLOUDS BELOW 12,000 FEET WITH NO
SIGNIFICANT WEATHER AND/OR OBSTRUCTIONS TO VISIBILITY.

WIZ001-002-006>008-014>016-023>028-190000-
NORTHWEST WISCONSIN

CITY           SKY/WX    TMP DP  RH WIND       PRES   REMARKS
SUPERIOR ARPT  SUNNY     39  33  77 NE16G25   30.12F WCI  31
ASHLAND        SUNNY     45  34  65 N13       30.12F
HAYWARD        SUNNY     61  34  36 NE16      30.03S
SIREN          PTSUNNY   70  28  21 SE7       29.99F
CUMBERLAND     CLOUDY    63  32  31 SE10      30.00F
RICE LAKE      CLOUDY    65  32  28 E14       30.02F
CHETEK         CLOUDY    65  35  33 E8G23     30.02S
LADYSMITH      MOSUNNY   65  28  25 SE12      30.05S
EAU CLAIRE     CLOUDY    67  29  24 E13       30.00S
MENOMONIE      CLOUDY    69  31  25 E16       29.99S
NEW RICHMOND   CLOUDY    67  32  27 E13       29.98F
OSCEOLA        CLOUDY    68  33  27 E10       29.99F
$$

WIZ003>005-009-010-017-018-190000-
NORTH CENTRAL WISCONSIN

CITY           SKY/WX    TMP DP  RH WIND       PRES   REMARKS
MANITOWISH WTR SUNNY     62  22  22 SE9       30.08F
ARBOR VITAE    HAZE      63  18  17 SE13G20   30.08F VSB 1/4
WOODRUFF       HAZE      63  18  17 SE13G20   30.08F VSB 1/4
RHINELANDER    SUNNY     61  20  20 E17       30.10F
EAGLE RIVER    SUNNY     62  13  15 E10G16    30.10S
LAND O LAKES   SUNNY     62  13  14 SE9       30.11F
PHILLIPS       PTSUNNY   64  28  25 E12       30.06S
TOMAHAWK       MOSUNNY   61  25  24 SE3       30.09S
MEDFORD        PTSUNNY   58  24  26 E10G17    30.07F
MERRILL        MOSUNNY   62  18  18 SE13      30.09S
$$

WIZ029-030-035-036-043>047-190000-
CENTRAL WISCONSIN

CITY           SKY/WX    TMP DP  RH WIND       PRES   REMARKS
WAUSAU         MOSUNNY   59  17  19 E16G22    30.08S
MOSINEE        SUNNY     59  19  21 E14G20    30.10
MARSHFIELD     MOSUNNY   61  29  29 E15G23    30.06F
STEVENS POINT  MOSUNNY   59  24  25 E15       30.10S
WAUPACA        SUNNY     63  20  18 NE14      30.10F
WAUTOMA        NOT AVBL
WISC RAPIDS    MOSUNNY   62  20  19 SE17      30.07F
CAMP DOUGLAS   NOT AVBL
$$

WIZ011>013-019>022-031-037>040-048>050-190000-
NORTHEAST WISCONSIN

CITY           SKY/WX    TMP DP  RH WIND       PRES   REMARKS
ANTIGO         SUNNY     58  14  17 SE15G22   30.11F
SHAWANO        MOSUNNY   60  21  22 E15       30.13F
OCONTO         MOSUNNY   56  24  28 NE9G17    30.14S
STURGEON BAY   MOSUNNY   55  21  26 NE10      30.15F
GREEN BAY      MOSUNNY   54  28  36 NE17      30.12F
MANITOWOC      NOT AVBL
APPLETON       NOT AVBL
CLINTONVILLE   MOSUNNY   59  21  23 E10       30.12F
OSHKOSH        SUNNY     60  27  28 NE13      30.08F
$$

WIZ032>034-041-042-053>061-190000-
SOUTHWEST WISCONSIN

CITY           SKY/WX    TMP DP  RH WIND       PRES   REMARKS
LA CROSSE      PTSUNNY   71  38  29 E14       29.95F
SPARTA         PTSUNNY   67  28  23 E14G21    30.02S
VIROQUA        PTSUNNY   69  36  29 E17G25    29.98F
BOSCOBEL       MOSUNNY   71  36  27 NE13G20   29.96F
PRAIRIE DU CHI PTSUNNY   72  35  26 E17       29.93F
PLATTEVILLE    PTSUNNY   72  36  27 E18       29.97S
$$

WIZ056-057-062-063-064-067-068-190000-
SOUTH CENTRAL WISCONSIN

CITY           SKY/WX    TMP DP  RH WIND       PRES   REMARKS
REEDSBURG      MOSUNNY   64  32  30 E12       30.02F
BARABOO/DELLS  SUNNY     65  29  25 E14G24    30.04S
LONE ROCK      NOT AVBL
MINERAL POINT  MOSUNNY   70  30  23 E15G22    29.98F
MADISON        PTSUNNY   67  30  25 E16       30.02F
MIDDLETON      SUNNY     69  24  18 E9G18     30.03S
WATERTOWN      SUNNY     65  33  30 E12       30.04S
MONROE         MOSUNNY   68  32  26 E16G24    29.99F
JANESVILLE     SUNNY     72  28  20 E16G23    30.01
$$

WIZ051-052-058>065-066-070>072-190000-
SOUTHEAST WISCONSIN

CITY           SKY/WX    TMP DP  RH WIND       PRES   REMARKS
MILWAUKEE      MOSUNNY   45  33  63 N21G30    30.09S
WAUKESHA       MOSUNNY   57  30  35 NE14      30.07S
MILWAUKEE/TIMM SUNNY     52  28  40 NE16      30.08F
RACINE         SUNNY     45  34  65 N17G28    30.08F
BURLINGTON     MOSUNNY   57  32  38 NE13G18   30.05S
KENOSHA        MOSUNNY   51  33  50 N16       30.06S
FOND DU LAC    SUNNY     62  28  27 NE12      30.08S
SHEBOYGAN      SUNNY     51  31  46 NE20G30   30.10F
WEST BEND      SUNNY     55  28  35 NE12      30.08S
JUNEAU         SUNNY     63  32  31 NE10      30.07S
$$

LSZ147-162-190000-
LAKE SUPERIOR

STATION/POSITION TIME  TEMP    WIND        PRES    WAVE
                       AIR SEA DIR/SP/G            HT/PER
                 (UTC) (F)     (DEG/KT/KT) (MB)    (FT/S)
DEVILS ISLAND    2200   37      50/ 22/ 24 1021.8F
PORT WING        2200   39      40/ 23/ 27 1020.3
SAXON HARBOR     2240   40     360/ 11/ 14 1019.0F
$$

LMZ867-665-643>646-190000-
LAKE MICHIGAN

STATION/POSITION TIME  TEMP    WIND        PRES    WAVE
                       AIR SEA DIR/SP/G            HT/PER
                 (UTC) (F)     (DEG/KT/KT) (MB)    (FT/S)
CHAMBERS ISLAND  2200   44      10/  7/ 10 1021.7F
NORTHPORT PIER   2200   52      70/  7/  9 1021.7F
SISTER BAY       2232   58      10/ 13/ 19   N/A
KEWAUNEE LAKESHO 2200   46      30/ 13/ 17 1019.7F
SHEBOYGAN LAKESH 2200   42      10/ 19/ 21 1020.2F
PORT WASHINGTON  2226   51      30/ 16/ 25 1019.3F
MILWAUKEE LAKESH 2200   43      10/ 20/ 27   N/A
KENOSHA   LAKESH 2200   44      10/ 23/ 28 1017.9F
$$

TC  - TEMPERATURE IN CELSIUS
VSB - VISIBILITY IN STATUTE MILES
WCI - WIND CHILL INDEX
HX  - HEAT INDEX



USA.gov is the U.S. government's official web portal to all federal, state and local government web resources and services.